Location: Unspecified
(43.8044°N, 11.0278°E)
Time: 20:19:24
(UTC+01:00)

Resurs 1-4 Rocket - Visible Passes

Search period start: 01 March 2015 00:00
Search period end: 11 March 2015 00:00
Orbit: 801 x 814 km, 98.4° (Epoch: 28 February)

Date Brightness Start Highest point End Pass type
(mag) Time Alt. Az. Time Alt. Az. Time Alt. Az.
01 Mar 3.7 03:24:26 10° NNE 03:27:49 31° ENE 03:27:49 31° ENE visible
01 Mar 2.9 05:04:31 10° N 05:08:55 30° WNW 05:08:55 30° WNW visible
02 Mar 4.3 03:00:32 10° NE 03:03:13 20° ENE 03:03:13 20° ENE visible
02 Mar 2.4 04:39:43 10° N 04:44:19 47° NW 04:44:19 47° NW visible
03 Mar 4.8 02:37:16 10° ENE 02:38:36 13° ENE 02:38:36 13° ENE visible
03 Mar 2.2 04:15:06 10° N 04:19:43 65° NNW 04:19:43 65° NNW visible
03 Mar 3.9 05:57:29 10° NW 05:59:31 12° WNW 06:00:48 11° WNW visible
04 Mar 2.6 03:50:40 10° NNE 03:55:06 56° NE 03:55:06 56° NE visible
04 Mar 3.5 05:31:41 10° NNW 05:35:22 19° WNW 05:36:12 18° WNW visible
05 Mar 3.4 03:26:26 10° NNE 03:30:30 36° ENE 03:30:30 36° ENE visible
05 Mar 2.9 05:06:36 10° N 05:11:08 29° WNW 05:11:36 28° WNW visible
06 Mar 4.1 03:02:29 10° NE 03:05:54 23° ENE 03:05:54 23° ENE visible
06 Mar 2.3 04:41:46 10° N 04:46:50 46° WNW 04:46:59 45° WNW visible
07 Mar 4.7 02:39:07 10° NE 02:41:17 14° E 02:41:17 14° E visible
07 Mar 1.9 04:17:08 10° N 04:22:23 74° WNW 04:22:23 74° WNW visible
07 Mar 4.0 05:59:46 10° NW 06:01:30 11° WNW 06:02:58 10° WNW visible
08 Mar 2.3 03:52:41 10° NNE 03:57:47 68° E 03:57:47 68° E visible
08 Mar 3.5 05:33:49 10° NNW 05:37:22 18° WNW 05:38:53 16° W visible
09 Mar 3.2 03:28:26 10° NNE 03:33:10 41° E 03:33:10 41° E visible
09 Mar 3.0 05:08:41 10° N 05:13:08 28° WNW 05:14:16 25° W visible
10 Mar 3.9 03:04:26 10° NE 03:08:34 25° E 03:08:34 25° E visible
10 Mar 2.4 04:43:49 10° N 04:48:50 43° WNW 04:49:40 40° W visible
